User: anonymous   Login
Location: Melita
(38.4566°N, 122.6369°W)
Time: 22:49:23
(UTC+00:00)
Language:

STARLINK-1055 - Orbit

View from above orbital plane
View from above orbital plane
View from above satellite
View from above satellite

Ground track
Ground track

The orbit data is extracted from the following two-line orbital elements,

1 44760C 19074AZ  20093.86279391  .00006909  00000-0  47334-3 0   934
2 44760  53.0250 233.7444 0001632 114.9133 101.5583 15.05564162    18
Epoch (UTC): 02 April 2020 20:42:25
Eccentricity: 0.0001632
inclination: 53.0250°
perigee height: 548 km
apogee height: 551 km
right ascension of ascending node: 233.7444°
argument of perigee: 114.9133°
revolutions per day: 15.05564162
mean anomaly at epoch: 101.5583°
orbit number at epoch: 1

The dashed part of the orbit path shows where the satellite is in the earth's shadow,  

DLR